Location: Briis
(48.6240°N, 2.1211°E)
Time: 04:49:35
(UTC+00:00)

ALOS - Visible Passes

Search period start: 18 January 2021 00:00
Search period end: 28 January 2021 00:00
Orbit: 683 x 685 km, 97.9° (Epoch: 17 January)

Date Brightness Start Highest point End Pass type
(mag) Time Alt. Az. Time Alt. Az. Time Alt. Az.
18 Jan 5.0 03:54:23 10° NNE 03:54:41 12° NNE 03:54:41 12° NNE visible
18 Jan 4.2 05:32:11 10° N 05:33:12 15° NNW 05:33:12 15° NNW visible
19 Jan 4.5 04:31:19 10° NNE 04:32:18 16° NNE 04:32:18 16° NNE visible
19 Jan 4.3 06:10:25 10° NNW 06:10:48 11° NNW 06:10:48 11° NNW visible
20 Jan 4.1 05:08:39 10° N 05:09:56 18° N 05:09:56 18° N visible
21 Jan 4.7 04:08:10 10° NNE 04:09:03 15° NNE 04:09:03 15° NNE visible
21 Jan 4.1 05:46:24 10° NNW 05:47:33 15° NNW 05:47:33 15° NNW visible
22 Jan 4.2 04:45:16 10° N 04:46:41 20° N 04:46:41 20° N visible
23 Jan 5.0 03:45:11 10° NNE 03:45:49 13° NNE 03:45:49 13° NNE visible
23 Jan 3.9 05:22:43 10° N 05:24:19 19° NNW 05:24:19 19° NNW visible
24 Jan 4.3 04:22:00 10° NNE 04:23:27 20° NNE 04:23:27 20° NNE visible
24 Jan 4.1 06:00:43 10° NNW 06:01:58 14° NW 06:01:58 14° NW visible
25 Jan 5.3 03:22:26 10° NE 03:22:35 11° NE 03:22:35 11° NE visible
25 Jan 3.8 04:59:15 10° N 05:01:06 23° N 05:01:06 23° N visible
26 Jan 4.6 03:58:55 10° NNE 04:00:14 18° NNE 04:00:14 18° NNE visible
26 Jan 3.8 05:36:51 10° N 05:38:45 19° NNW 05:38:45 19° NNW visible
27 Jan 3.9 04:35:54 10° N 04:37:53 25° N 04:37:53 25° N visible
27 Jan 4.2 06:15:19 10° NNW 06:16:24 12° NW 06:16:24 12° NW visible
